Hourly Weather Roundup
Issued by NWS Central Illinois

Home | Current Version | Previous Version | Text Only | Print | Product List | Glossary On
Versions: 1 2 3 4 5 6 7 8 9 10 11 12 13 14 15 16 17 18 19 20 21 22 23 24 25 26 27 28 29 30 31 32 33 34 35 36 37 38 39 40 41 42 43 44 45 46 47 48 49 50
000
NZUS43 KILX 272010
HWRILX

AREA WEATHER ROUNDUP
NATIONAL WEATHER SERVICE, LINCOLN IL
300 PM CDT TUE SEP 27 2016


CITY           SKY/WX    TMP DP  RH WIND       PRES   REMARKS
BLOOMINGTON    SUNNY     73  35  25 W17       29.83F
CHAMPAIGN      SUNNY     77  34  21 W17G28    29.83F
DANVILLE       SUNNY     76  36  23 W13G25    29.80F
DECATUR        SUNNY     78  38  23 W15       29.84F
EFFINGHAM      SUNNY     78  48  35 W16       29.89F
FLORA          SUNNY     79  46  31 W14       29.89F
GALESBURG      SUNNY     73  35  25 W16       29.82F
JACKSONVILLE   SUNNY     78  41  27 W14G22    29.85F
LACON          SUNNY     73  24  15 W10G23    29.79F
LAWRENCEVILLE  SUNNY     79  47  32 W18G26    29.88F
LITCHFIELD     SUNNY     78  40  26 W16G26    29.88F
$$


CITY           SKY/WX    TMP DP  RH WIND       PRES   REMARKS
LINCOLN        SUNNY     76  41  28 W8G21     29.84F
MACOMB         SUNNY     76  32  20 W15G25    29.85F
MATTOON        LGT RAIN  77  40  26 W12G21    29.84F
MT CARMEL AP   SUNNY     80  45  29 W14G22    29.88F
OLNEY-NOBLE AP SUNNY     77  45  31 SW7G20    29.89S
PARIS          SUNNY     78  41  26 W8G18     29.84F
PEORIA         SUNNY     74  31  20 W18       29.82F
PONTIAC        SUNNY     75  29  18 W20G30    29.80F
RANTOUL        SUNNY     77  34  21 W17G26    29.82F
ROBINSON       SUNNY     77  45  32 W15G21    29.87F
SPRINGFIELD    SUNNY     79  38  22 W12G22    29.85F
TAYLORVILLE    SUNNY     77  42  27 W15G25    29.85F
$$

...REGIONAL REPORTS...


CITY           SKY/WX    TMP DP  RH WIND       PRES   REMARKS
CHICAGO O`HARE PTSUNNY   68  34  28 W20G30    29.74F
KANKAKEE       SUNNY     73  27  18 W18G28    29.78F
MOLINE         SUNNY     74  33  22 W21G29    29.79F
MOUNT STERLING SUNNY     75  39  26 W13G31    29.85F
MOUNT VERNON   SUNNY     77  46  33 SW13      29.92S
PITTSFIELD     MOSUNNY   78  45  31 W18G25    29.88F
QUINCY         SUNNY     77  42  28 W17G26    29.86F
ROCKFORD       MOSUNNY   68  36  30 W16G30    29.77F
$$


CITY           SKY/WX    TMP DP  RH WIND       PRES   REMARKS
BURLINGTON     SUNNY     74  32  21 W15G22    29.83F
CEDAR RAPIDS   SUNNY     71  39  31 W20G31    29.80F
DES MOINES     MOSUNNY   76  41  28 W22G28    29.85F
KIRKSVILLE     SUNNY     76  44  32 W10G20    29.90F
OTTUMWA        SUNNY     75  38  26 NW21G28   29.85F
ST LOUIS       MOSUNNY   81  44  27 W18       29.90F HX  80
$$


CITY           SKY/WX    TMP DP  RH WIND       PRES   REMARKS
TERRE HAUTE    SUNNY     77  40  26 W18G24    29.84F
EVANSVILLE     SUNNY     79  45  29 SW14      29.91F
INDIANAPOLIS   MOSUNNY   74  45  35 W20       29.83F
LAFAYETTE      LGT RAIN  73  36  25 W23G33    29.80F
MADISON        PTSUNNY   61  41  47 W12G18    29.73S
MILWAUKEE      CLOUDY    62  42  47 W17G25    29.73S
$$






USA.gov is the U.S. government's official web portal to all federal, state and local government web resources and services.